Weather History for KHIF - September, 2013

Change the Weather History Date:

Friday, September 13, 2013

  Actual Average Record
Temperature  
Mean Temperature 62 °F -  
Max Temperature 66 °F 73 °F 87 °F (1997)
Min Temperature 58 °F 52 °F 42 °F (2005)
Degree Days  
Heating Degree Days 3    
Growing Degree Days 12 (Base 50)    
Moisture  
Dew Point 53 °F    
Average Humidity 74    
Maximum Humidity 82    
Minimum Humidity 60    
Precipitation  
Precipitation 0.09 in - - ()
Sea Level Pressure  
Sea Level Pressure 29.90 in    
Wind  
Wind Speed 12 mph (SE)    
Max Wind Speed 17 mph    
Max Gust Speed 32 mph    
Visibility 10 miles    
Events Rain    
Averages and records for this station are not official NWS values.
T = Trace of Precipitation, MM = Missing Value Source: NWS Daily Summary

Daily Weather History Graph

Daily Weather History Graph

Search for Another Location

Airport or City:

Trip Planner

Search our weather history database for the weather conditions in past years. The results will help you decide how hot, cold, wet, or windy it might be!

Date:

Astronomy

Sep. 13, 2013 Rise Set
Actual Time 7:06 AM MDT 7:39 PM MDT
Civil Twilight 6:38 AM MDT 8:07 PM MDT
Nautical Twilight 6:06 AM MDT 8:40 PM MDT
Astronomical Twilight 5:32 AM MDT 9:13 PM MDT
Moon 3:35 PM MDT (9/13) 12:37 AM MDT (9/13)
Length of Visible Light 13h 28m
Length of Day
12h 33m
Waxing Gibbous, 62% of the Moon is Illuminated
Sep 13
Waxing Gibbous
Sep 19
Full
Sep 26
Last Quarter
Oct 4
New
Oct 11
First Quarter

Hourly Weather History & Observations

Time (MDT) Temp. Dew Point Humidity Pressure Visibility Wind Dir Wind Speed Gust Speed Precip Events Conditions
12:33 AM 62.6 °F 51.8 °F 68% 30.07 in 10.0 mi East 17.3 mph 32.2 mph N/A Rain Light Rain
12:56 AM 62.6 °F 53.6 °F 72% 30.07 in 10.0 mi ESE 15.0 mph - N/A   Overcast
1:48 AM 62.6 °F 53.6 °F 72% 30.06 in 10.0 mi ESE 16.1 mph - N/A   Overcast
1:56 AM 62.6 °F 51.8 °F 68% 30.06 in 10.0 mi ESE 16.1 mph 21.9 mph N/A   Overcast
1:59 AM 62.6 °F 51.8 °F 68% 30.06 in 10.0 mi ESE 13.8 mph 21.9 mph N/A   Overcast
2:30 AM 64.4 °F 53.6 °F 68% 30.07 in 9.0 mi SSE 10.4 mph - N/A Rain Light Rain
2:56 AM 60.8 °F 53.6 °F 77% 30.06 in 10.0 mi ESE 12.7 mph - N/A Rain Light Rain
3:08 AM 59.0 °F 53.6 °F 82% 30.06 in 10.0 mi ESE 12.7 mph - N/A   Overcast
3:56 AM 60.8 °F 53.6 °F 77% 30.06 in 10.0 mi ESE 13.8 mph - N/A   Overcast
4:38 AM 60.8 °F 53.6 °F 77% 30.05 in 10.0 mi East 13.8 mph - N/A Rain Light Rain
4:50 AM 60.8 °F 53.6 °F 77% 30.05 in 10.0 mi East 10.4 mph - N/A   Mostly Cloudy
4:56 AM 60.8 °F 53.6 °F 77% 30.04 in 10.0 mi East 12.7 mph - N/A   Mostly Cloudy
5:31 AM 60.8 °F 51.8 °F 72% 30.03 in 10.0 mi ESE 13.8 mph - N/A   Mostly Cloudy
5:56 AM 60.8 °F 51.8 °F 72% 30.03 in 10.0 mi East 13.8 mph - N/A   Overcast
6:38 AM 60.8 °F 51.8 °F 72% 30.04 in 10.0 mi ESE 11.5 mph - N/A   Overcast
6:56 AM 60.8 °F 51.8 °F 72% 30.04 in 10.0 mi East 17.3 mph 21.9 mph N/A   Overcast
7:58 AM 63.1 °F 51.8 °F 66% 29.81 in 10.0 mi Variable 5.8 mph - N/A   Mostly Cloudy
8:48 AM 62.6 °F 51.8 °F 68% 29.81 in 10.0 mi ESE 15.0 mph 23.0 mph N/A Rain Light Rain
8:58 AM 61.5 °F 52.5 °F 72% 29.82 in 5.0 mi ESE 13.8 mph - 0.00 in Rain Light Rain
9:58 AM 58.8 °F 52.7 °F 80% 29.86 in 6.0 mi ESE 11.5 mph - 0.02 in Rain Light Rain
10:28 AM 59.0 °F 53.6 °F 82% 29.83 in 10.0 mi ESE 6.9 mph - N/A   Mostly Cloudy
10:58 AM 61.0 °F 53.8 °F 77% 29.83 in 10.0 mi ESE 10.4 mph - 0.01 in Rain Light Rain
11:27 AM 62.6 °F 53.6 °F 72% 29.82 in 10.0 mi ESE 9.2 mph - N/A   Overcast
11:58 AM 63.9 °F 54.9 °F 72% 29.80 in 10.0 mi ESE 9.2 mph - 0.02 in   Mostly Cloudy
12:58 PM 64.4 °F 55.4 °F 73% 29.81 in 10.0 mi West 15.0 mph - 0.00 in Rain Light Rain
12:59 PM 64.4 °F 55.4 °F 73% 29.81 in 10.0 mi West 15.0 mph - N/A Rain Light Rain
1:58 PM 61.5 °F 54.5 °F 78% 29.81 in 6.0 mi NW 4.6 mph - 0.01 in Rain Light Rain
2:35 PM 60.8 °F 53.6 °F 77% 29.79 in 10.0 mi SW 2.3 mph - N/A Rain Light Rain
2:42 PM 60.8 °F 53.6 °F 77% 29.79 in 10.0 mi Variable 1.2 mph - N/A Rain Light Rain
2:55 PM 61.5 °F 54.9 °F 79% 29.80 in 10.0 mi South 2.3 mph - 0.01 in Rain Light Rain
2:56 PM 61.5 °F 54.9 °F 79% 29.80 in 10.0 mi South 2.3 mph - 0.01 in Rain Light Rain
3:55 PM 59.2 °F 53.1 °F 80% 29.79 in 10.0 mi SW 4.6 mph - 0.01 in Rain Light Rain
4:06 PM 60.8 °F 53.6 °F 77% 29.78 in 10.0 mi SW 3.5 mph - N/A   Mostly Cloudy
4:55 PM 61.9 °F 55.2 °F 79% 29.78 in 10.0 mi SE 4.6 mph - 0.01 in   Mostly Cloudy
5:55 PM 66.2 °F 55.4 °F 68% 29.75 in 10.0 mi Variable 2.3 mph - N/A   Mostly Cloudy
6:56 PM 66.7 °F 52.5 °F 60% 29.72 in 10.0 mi WSW 2.3 mph - N/A   Scattered Clouds
7:55 PM 63.5 °F 54.3 °F 72% 29.74 in 10.0 mi SE 2.3 mph - N/A   Scattered Clouds
8:55 PM 60.3 °F 53.8 °F 79% 29.76 in 10.0 mi SW 4.6 mph - N/A   Scattered Clouds
9:55 PM 59.4 °F 53.8 °F 82% 29.79 in 10.0 mi ESE 4.6 mph - N/A   Scattered Clouds
10:55 PM 59.4 °F 52.7 °F 79% 29.78 in 10.0 mi ESE 5.8 mph - N/A   Overcast
11:55 PM 58.6 °F 51.6 °F 77% 29.78 in 10.0 mi ESE 8.1 mph - N/A   Scattered Clouds